User: anonymous
Location: Kitchener
(43.4500°N, 80.5000°W)
Time: 00:01:13
(UTC-04:00)
Language:

ATLAS 5 CENTAUR R/B - Orbit

View from above orbital plane
View from above orbital plane
View from above satellite
View from above satellite

Ground track
Ground track

The orbit data is extracted from the following two-line orbital elements,

1 31702U 07027B   14269.90398745 0.00000400  00000-0  17065-3 0    05
2 31702  63.3790 237.4898 0161000 351.0165   8.9835 14.18175138    05
Epoch (UTC): 26 September 2014 21:41:44
Eccentricity: 0.0161000
inclination: 63.3790°
perigee height: 715 km
apogee height: 947 km
right ascension of ascending node: 237.4898°
argument of perigee: 351.0165°
revolutions per day: 14.18175138
mean anomaly at epoch: 8.9835°
orbit number at epoch: 0

The dashed part of the orbit path shows where the satellite is in the earth's shadow,  

DLR